User: anonymous   Login
Location: Bailleul
(50.3375°N, 2.8513°E)
Time: 11:00:25
(UTC+00:00)
Language:

FENGYUN 1C DEB - Orbit

View from above orbital plane
View from above orbital plane
View from above satellite
View from above satellite

Ground track
Ground track

The orbit data is extracted from the following two-line orbital elements,

1 31181U 99025BJK 22203.35885887  .00000833  00000-0  53246-3 0  9997
2 31181  98.8854 245.4705 0050030 325.5050  46.4191 14.05641429783596
Epoch (UTC): 22 July 2022 08:36:45
Eccentricity: 0.0050030
inclination: 98.8854°
perigee height: 838 km
apogee height: 910 km
right ascension of ascending node: 245.4705°
argument of perigee: 325.5050°
revolutions per day: 14.05641429
mean anomaly at epoch: 46.4191°
orbit number at epoch: 78359

The dashed part of the orbit path shows where the satellite is in the earth's shadow,  

DLR